TITAN 3C TRANSTAGE DEB, 1829

Orbit data source: Space-Track

TITAN 3C TRANSTAGE DEB, 1829 is space debris in LEO originally from a launch on Fri, 15 Oct 1965 UTC launched from the Air Force Eastern Test Range (AFETR). Debris objects in space refer to the collection of defunct objects orbiting the Earth. Examples of debris include non-operational satellites, rocket bodies, and fragments generated from explosions, collisions, or faulty payload assembly.

Loading next visibility...
Identifier
1829, 1965-082DU
Orbit
LEO
Country
Flag of USUS
Related business
Manufacturer
Unknown
Mission
Spacecraft
Bus & Motor
Unknown
Mass
Unknown
Launch date (UTC)
1965-10-15 (60 years ago)
Launch vehicle
Unknown
Launch site
Air Force Eastern Test Range (AFETR)
Object type
Payload
Rocket body
Debris
Shape & HBR
Unknown shape, 0.1 m
Radar Cross Section
Small (<0.1 m²)

Expand to show TLE details & history
Last TLE update: 12 hours ago

TLE from 12 hours ago
0 TITAN 3C TRANSTAGE DEB
1 01829U 65082DU  25350.65335218  .00002179  00000-0  22448-3 0  9991
2 01829  32.2902 333.5127 0024472 171.6171 188.4897 14.88428770193295
Epoch: 2025-12-16T15:40Z
TLE epoch observation values (Epoch: 2025-12-16T15:40:49.628Z)
Latitude
-0°
Longitude
12.77144°
Altitude
618.387 km
Speed
7.543 km/s
True Right ascension
22h 14m 03s
True Declination
0° 00' 00"
Sunlit
Object was in daylight at epoch
Visualization orbit readout
Latitude
Unknown
Longitude
Unknown
Altitude
Unknown
Speed
Unknown
Apparent Right ascension
Unknown
Apparent Declination
Unknown
Sunlit
N/A
Visualization observer readout
Local Sidereal Time
02:41:40
Azimuth
Unknown
Elevation
Unknown
Doppler factor
Unknown
Orbital elements
Apogee altitude
623.551 km
Perigee altitude
589.365 km
Semi-major axis
6,984.595 km
Eccentricity
0.00245
Inclination
32.2902°
RAAN
333.5127°
Arg. of periapsis
171.6171°
True anomaly
188.44842°
Mean anomaly
188.4897°
Eccentric anomaly
188.46905°
Mean motion
3.71819 °/min
Orbital period
96.82 mins
BSTAR
0.00022448

Documentation

Showing up to 5 results
|